Dillon, MT

1:26 PM MDT on July 22, 2017 (GMT -0600)
Dillon

Weather History for KDLN - November, 2013

Change the Weather History Date:

Sunday, November 10, 2013

  Actual Average Record
Temperature  
Mean Temperature 46 °F 33 °F  
Max Temperature 58 °F 45 °F 66 °F (1956)
Min Temperature 34 °F 22 °F -19 °F (1986)
Degree Days  
Heating Degree Days 19    
Month to date heating degree days 286  
Since 1 July heating degree days 1291  
Cooling Degree Days 0    
Month to date cooling degree days 0  
Year to date cooling degree days 247  
Moisture  
Dew Point 28 °F    
Average Humidity 52    
Maximum Humidity 70    
Minimum Humidity 33    
Precipitation  
Precipitation 0.00 in 0.02 in 0.12 in (2008)
Month to date precipitation 0.02 0.15  
Year to date precipitation 9.75 10.08  
Snow  
Snow 0.00 in - - ()
Snow Depth 0.00 in    
Sea Level Pressure  
Sea Level Pressure 30.14 in    
Wind  
Wind Speed 9 mph (SSW)    
Max Wind Speed 16 mph    
Max Gust Speed 20 mph    
Visibility 10 miles    
Events      
T = Trace of Precipitation, MM = Missing Value Source: NWS Daily Summary

Daily Weather History Graph

Daily Weather History Graph

Search for Another Location

Airport or City:

Trip Planner

Search our weather history database for the weather conditions in past years. The results will help you decide how hot, cold, wet, or windy it might be!

Date:

Astronomy

Nov. 10, 2013 Rise Set
Actual Time 7:22 AM MST 5:05 PM MST
Civil Twilight 6:50 AM MST 5:37 PM MST
Nautical Twilight 6:15 AM MST 6:12 PM MST
Astronomical Twilight 5:40 AM MST 6:47 PM MST
Moon 1:31 PM MST (11/10) No Moon Set
Length of Visible Light 10h 46m
Length of Day
9h 43m
First Quarter, 56% of the Moon is Illuminated
Nov 10
First Quarter
Nov 17
Full
Nov 25
Last Quarter
Dec 2
New
Dec 9
First Quarter

Hourly Weather History & Observations

Time (MST) Temp. Windchill Dew Point Humidity Pressure Visibility Wind Dir Wind Speed Gust Speed Precip Events Conditions
12:53 AM 37.0 °F 31.6 °F 26.1 °F 65% 30.16 in 10.0 mi SSE 6.9 mph - N/A   Clear
1:53 AM 37.0 °F 31.0 °F 26.1 °F 65% 30.14 in 10.0 mi South 8.1 mph - N/A   Clear
2:53 AM 37.9 °F 30.9 °F 26.1 °F 62% 30.14 in 10.0 mi SSW 10.4 mph - N/A   Clear
3:53 AM 36.0 °F 29.6 °F 26.1 °F 67% 30.15 in 10.0 mi SSE 8.1 mph - N/A   Clear
4:53 AM 36.0 °F 27.5 °F 26.1 °F 67% 30.18 in 10.0 mi SSE 12.7 mph - N/A   Clear
5:53 AM 39.0 °F 31.4 °F 27.0 °F 62% 30.19 in 10.0 mi South 12.7 mph - N/A   Partly Cloudy
6:53 AM 35.1 °F 26.4 °F 26.1 °F 70% 30.22 in 10.0 mi SSW 12.7 mph - N/A   Clear
7:53 AM 37.0 °F 29.8 °F 27.0 °F 67% 30.21 in 10.0 mi South 10.4 mph - N/A   Mostly Cloudy
8:53 AM 39.0 °F 33.4 °F 28.0 °F 65% 30.20 in 10.0 mi South 8.1 mph - N/A   Partly Cloudy
9:53 AM 42.1 °F 37.1 °F 28.9 °F 60% 30.19 in 10.0 mi SSW 8.1 mph - N/A   Clear
10:53 AM 46.9 °F - 28.9 °F 50% 30.17 in 10.0 mi SSW 8.1 mph - N/A   Clear
11:53 AM 50.0 °F - 28.9 °F 44% 30.14 in 10.0 mi SW 10.4 mph - N/A   Clear
12:53 PM 54.0 °F - 30.0 °F 40% 30.09 in 10.0 mi SSW 11.5 mph - N/A   Clear
1:53 PM 57.0 °F - 28.9 °F 34% 30.08 in 10.0 mi SW 9.2 mph - N/A   Clear
2:53 PM 57.0 °F - 28.9 °F 34% 30.06 in 10.0 mi SSW 8.1 mph - N/A   Clear
3:53 PM 54.0 °F - 30.0 °F 40% 30.08 in 10.0 mi SSW 4.6 mph - N/A   Clear
4:53 PM 53.1 °F - 30.0 °F 41% 30.09 in 10.0 mi Calm Calm - N/A   Clear
5:53 PM 48.0 °F - 30.0 °F 50% 30.10 in 10.0 mi Calm Calm - N/A   Clear
6:53 PM 42.1 °F 36.1 °F 30.0 °F 62% 30.14 in 10.0 mi SSW 10.4 mph - N/A   Clear
7:53 PM 41.0 °F 34.3 °F 30.0 °F 65% 30.15 in 10.0 mi South 11.5 mph - N/A   Clear
8:53 PM 39.9 °F 33.9 °F 30.0 °F 68% 30.15 in 10.0 mi South 9.2 mph - N/A   Clear
9:53 PM 39.0 °F 32.8 °F 28.9 °F 67% 30.15 in 10.0 mi SSW 9.2 mph - N/A   Clear
10:53 PM 37.9 °F 31.5 °F 28.9 °F 70% 30.14 in 10.0 mi South 9.2 mph - N/A   Clear
11:53 PM 37.0 °F 29.8 °F 28.0 °F 70% 30.14 in 10.0 mi South 10.4 mph - N/A   Clear